This is the latest recevied weather packets stored in our database for station/object KB1FFS. If no packets are shown the sender has not sent any weather packets the latest 10 day(s).
| Time | Temp. | Humidity | Pressure | Rain* | Wind** | Luminosity | Snow |
|---|---|---|---|---|---|---|---|
| 1788123141 | 40° C | 29% | 1014.5 hPa | 0 mm | - | 656 W/m² | - |
| 1788122836 | 40° C | 29% | 1014.5 hPa | 0 mm | - | 664 W/m² | - |
| 1788122535 | 40° C | 28% | 1014.5 hPa | 0 mm | - | 174 W/m² | - |
| 1788122231 | 40.56° C | 27% | 1014.7 hPa | 0 mm | - | 682 W/m² | - |
| 1788121927 | 40.56° C | 27% | 1014.7 hPa | 0 mm | - | 694 W/m² | - |
| 1788121626 | 40.56° C | 27% | 1014.7 hPa | 0 mm | - | 701 W/m² | - |
| 1788121322 | 40.56° C | 28% | 1014.8 hPa | 0 mm | - | 719 W/m² | - |
| 1788121021 | 40° C | 29% | 1014.9 hPa | 0 mm | - | 716 W/m² | - |
| 1788120716 | 40° C | 28% | 1015.1 hPa | 0 mm | - | 726 W/m² | - |
| 1788120411 | 40° C | 28% | 1015.3 hPa | 0 mm | - | 728 W/m² | - |
| 1788120111 | 40° C | 28% | 1015 hPa | 0 mm | - | 737 W/m² | - |
| 1788119806 | 40° C | 29% | 1015.2 hPa | 0 mm | - | 749 W/m² | - |
| 1788119504 | 40° C | 29% | 1015.1 hPa | 0 mm | - | 749 W/m² | - |
| 1788119203 | 39.44° C | 30% | 1015.2 hPa | 0 mm | - | 759 W/m² | - |
| 1788118903 | 39.44° C | 30% | 1015.3 hPa | 0 mm | - | 767 W/m² | - |
| 1788118598 | 39.44° C | 30% | 1015.4 hPa | 0 mm | - | 771 W/m² | - |
| 1788118293 | 40° C | 29% | 1015.4 hPa | 0 mm | - | 781 W/m² | - |
| 1788117989 | 39.44° C | 30% | 1015.6 hPa | 0 mm | - | 778 W/m² | - |
| 1788117689 | 39.44° C | 29% | 1015.6 hPa | 0 mm | - | 779 W/m² | - |
| 1788117384 | 39.44° C | 30% | 1015.6 hPa | 0 mm | - | 768 W/m² | - |
| 1788117080 | 39.44° C | 30% | 1015.5 hPa | 0 mm | - | 793 W/m² | - |
| 1788116776 | 39.44° C | 31% | 1015.6 hPa | 0 mm | - | 788 W/m² | - |
| 1788116470 | 39.44° C | 31% | 1015.8 hPa | 0 mm | - | 764 W/m² | - |
| 1788116168 | 39.44° C | 30% | 1015.7 hPa | 0 mm | - | 802 W/m² | - |
| 1788115865 | 39.44° C | 30% | 1015.9 hPa | 0 mm | - | 790 W/m² | - |
* Rain latest hour (hover to see other rain measurements)
** Current wind speed in m/s (hover to see current wind gust speed)